GALAXY 23 (TELSTAR 13)

导读

GALAXY 23又名TELSTAR 13,是由美国发射于2003年8月8日的通信卫星,由劳拉空间系统公司制造,加拿大Telesat公司运营。定点于西经115.0°地球静止轨道,搭载C波段和Ku波段转发器,为北美和南美区域提供固定卫星通信服务,广泛支撑电视传输、企业专网与互联网接入业务,至今仍在轨运行,服役超20年持续发挥通信保障作用。

Basic Information
目录编号:
27854
目录名称:
GALAXY 23 (TELSTAR 13)
国际标识:
2003-034A
轨道中心:
EARTH
卫星名称:
GALAXY 23 (TELSTAR 13)
卫星全名:
--
卫星状态:
在轨 (已飞行8439 天)
发射日期:
2003-08-08 UTC
国别 :
美国 (US)
星等 :
--
This satellite is enrolled in the Space Conjunction Data Service (SCDS) and the current flight risk assessment level is: No High Risk
Orbit Information
数据来源 国际轨道数据 AOE轨道数据
星历时间 2026-09-15T19:41:34+0800
10小时前
查看轨道信息
2026-09-12T17:00:00+0800
3天前
查看轨道信息
半长轴 42538.392km 42538.106km
偏心率 0.0003512 0.0003481
轨道倾角 3.434° 3.425°
近地点辐角 120.430° 115.925°
升交点赤经 78.413° 78.456°
平近点角 257.656° 233.425°
近地点 36145.315km 36145.161km
远地点 36175.195km 36174.777km
周期 1455.229分钟 1455.214分钟
每日圈数 0.989535 0.989545
Detailed Information
使用方式:
暂无
2D Orbit Map
3D Orbit Map
Orbit Altitude Analysis Chart
Orbit Inclination Analysis Chart
Orbit Comprehensive Analysis Chart
View Comprehensive Chart
Miss Distance Evolution Trend with All Objects Subscribe to Flight Safety Assessment
Collision Probability Evolution Trend with All Objects Subscribe to Flight Safety Assessment